Theta_e
338 333 331 330 328 326 327 327 331 331 333 335 337 339 339 339 338 339 339 342 340 339
329 328 327 328 327 324 326 323 326 326 326 327 328 329 334 333 335 336 336 337 337 335
324 324 323 323 323 323 323 323 323 323 324 324 324 324 326 325 328 329 332 333 333 333
317 318 318 317 318 318 318 318 317 317 318 318 319 321 322 322 322 322 323 326 326 327
313 313 313 312 314 315 314 314 313 313 313 313 313 316 315 315 316 317 317 319 321 321
311 311 311 310 311 311 310 310 310 310 309 309 309 310 312 311 311 312 313 315 316 316
310 309 309 308 308 307 307 306 305 305 305 305 305 306 307 308 306 308 309 311 312 313
307 307 306 305 304 303 303 303 303 302 303 303 304 303 301 302 304 304 305 307 307 308
304 304 302 302 302 302 301 301 301 301 301 302 302 296 296 298 301 303 303 303 304 305
300 299 300 300 300 299 300 300 300 300 301 301 302 296 295 296 301 301 301 301 301 302
298 298 298 298 298 298 299 299 299 299 301 301 301 296 294 295 301 301 300 299 299 300
297 297 297 298 298 298 298 299 300 301 302 302 303 297 295 296 300 301 301 302 301 299
297 297 298 298 298 298 299 300 299 299 300 300 302 297 295 295 297 296 297 300 302 299
297 297 298 298 298 297 299 297 298 300 301 301 301 302 296 295 296 296 296 297 299 301
Wind_Speed
11 8 8 7 5 7 7 6 6 8 8 7 7 6 6 5 4 6 8 12 10 7
13 12 8 7 6 7 8 7 8 9 9 9 8 8 7 4 4 5 5 7 8 7
13 11 10 9 12 11 9 9 10 9 8 8 8 7 5 4 3 4 3 3 5 6
11 12 13 13 11 10 9 10 9 9 8 9 9 8 7 7 7 8 7 6 6 6
10 11 10 12 11 10 10 9 9 10 9 9 9 9 9 9 8 8 7 8 8 7
14 15 12 8 9 9 9 9 10 10 10 10 10 10 9 9 9 9 8 8 7 7
11 8 7 7 8 9 9 9 9 10 11 11 11 12 11 11 12 12 11 10 10 10
7 7 6 7 7 7 8 8 9 9 9 9 9 7 11 11 11 11 12 12 13 13
7 7 7 8 8 8 9 9 8 8 8 8 6 8 12 12 11 11 11 11 12 12
7 8 8 8 9 9 9 9 9 9 10 11 10 10 12 14 10 11 11 12 12 12
7 7 7 7 8 8 8 9 9 9 9 10 8 10 12 14 10 10 11 12 13 13
8 7 7 7 7 6 7 7 7 8 9 10 10 10 11 11 11 12 13 12 11 12
6 6 7 7 7 7 6 8 8 10 9 9 11 12 13 12 7 10 9 12 14 13
5 5 6 6 6 6 7 7 8 8 8 9 11 12 11 13 8 8 9 10 11 10
Wind_Direction
97 97 95 91 100 95 87 79 71 69 65 53 36 18 352 336 313 274 252 259 249 251
92 85 85 77 82 72 53 50 43 45 47 41 36 30 25 13 330 282 268 268 265 258
85 92 89 73 56 52 45 33 29 26 31 32 27 17 5 358 344 331 330 296 281 276
77 68 59 54 48 46 42 34 27 23 22 27 19 11 6 358 351 338 329 307 300 291
78 76 71 49 37 32 32 26 16 9 4 6 1 358 355 352 355 351 343 333 321 308
54 48 48 40 32 21 11 7 2 351 348 342 335 334 326 326 324 320 314 308 304 297
55 53 45 28 21 7 355 342 341 337 329 326 327 323 316 326 316 307 298 296 289 288
56 37 20 10 354 345 340 338 336 334 329 329 317 350 338 322 311 307 302 296 291 284
23 5 1 355 349 348 351 352 344 344 338 342 334 11 339 338 321 316 310 303 300 295
7 0 358 354 356 1 355 353 350 351 348 346 335 353 334 339 326 320 319 312 310 308
357 356 2 1 2 358 354 349 348 350 349 337 343 331 328 330 319 319 312 307 306 302
356 353 355 357 354 352 344 352 350 344 348 343 341 343 323 323 323 316 312 308 299 297
356 356 356 351 353 347 346 348 339 340 340 328 325 329 322 319 313 304 306 303 299 284
353 341 353 343 350 335 338 330 325 327 336 339 330 328 320 308 313 300 303 297 295 289